W0VIP Weather Reports


Display with metric or nautical units.
time (UTC)temp
F
wind
direction
speed
MPH
gust
MPH
rain 1hr
in
rain 24hr
in
rain mn
in
humidity
%
barometer
mb
20260507070051 42 36 0.0 0.0 0.00 0.01 0.00 91 1021.1
20260507065054 42 36 0.0 0.0 0.00 0.01 0.00 91 1021.2
20260507064042 43 36 0.0 0.0 0.00 0.01 0.00 90 1021.2
20260507063046 43 36 0.0 0.0 0.00 0.01 0.00 90 1021.3
20260507062115 43 36 0.0 0.0 0.00 0.01 0.00 90 1021.4
20260507061043 43 36 0.0 0.0 0.00 0.01 0.00 89 1021.4
20260507060032 43 36 0.0 0.0 0.00 0.01 0.00 89 1021.3
20260507055056 43 36 0.0 0.0 0.00 0.01 0.00 88 1021.4
20260507054032 44 36 0.0 0.0 0.00 0.01 0.00 88 1021.2
20260507053035 44 36 0.0 0.0 0.00 0.01 0.00 87 1021.3
20260507052110 44 36 0.0 0.0 0.00 0.01 0.00 87 1021.2
20260507051029 44 36 0.0 0.0 0.00 0.01 0.00 87 1021.2
20260507050113 45 36 0.0 0.0 0.00 0.01 0.01 86 1021.3
20260507045047 45 36 0.0 0.0 0.00 0.01 0.01 85 1021.3
20260507044028 45 36 0.0 0.0 0.00 0.01 0.01 84 1021.2
20260507043041 46 36 0.0 0.0 0.00 0.01 0.01 83 1021.1
20260507042053 46 36 0.0 0.0 0.00 0.01 0.01 82 1021.2
20260507041029 46 36 0.0 0.0 0.00 0.01 0.01 81 1021.2
20260507040038 46 36 0.0 0.0 0.00 0.01 0.01 79 1021.1
20260507035044 47 36 0.0 0.0 0.00 0.01 0.01 79 1021.0
20260507034050 47 36 0.0 0.0 0.00 0.01 0.01 77 1020.9
20260507033040 47 36 0.0 0.0 0.00 0.01 0.01 76 1020.9
20260507032049 48 36 0.0 0.0 0.00 0.01 0.01 75 1020.9
20260507031032 48 36 0.0 0.0 0.00 0.01 0.01 74 1020.7
20260507030029 49 36 0.0 0.0 0.00 0.01 0.01 73 1020.7
20260507025038 49 36 0.0 0.0 0.00 0.01 0.01 73 1020.7
20260507024100 49 36 0.0 0.0 0.00 0.01 0.01 72 1020.7
20260507023027 50 36 0.0 0.0 0.00 0.01 0.01 70 1020.6
20260507022033 50 36 0.0 0.0 0.00 0.01 0.01 68 1020.5
20260507021038 50 36 0.0 0.0 0.00 0.01 0.01 69 1020.3
20260507020042 51 36 0.0 0.0 0.00 0.06 0.01 69 1020.2
20260507015039 52 36 0.0 1.0 0.00 0.06 0.01 67 1020.2
20260507014055 53 36 0.0 0.0 0.00 0.06 0.01 62 1019.9
20260507013024 54 36 0.0 0.0 0.00 0.06 0.01 58 1019.8
20260507012046 55 36 0.0 0.0 0.00 0.06 0.01 57 1019.6
20260507010046 57 36 0.0 2.0 0.00 0.07 0.01 51 1019.5
20260507005027 57 319 0.0 1.0 0.00 0.07 0.01 50 1019.5
20260507004110 58 319 0.0 5.0 0.00 0.07 0.01 48 1019.5
20260507003038 58 312 1.0 2.0 0.00 0.07 0.01 50 1019.4
20260507002050 58 337 1.0 8.0 0.00 0.07 0.01 48 1019.4
20260507001033 59 337 1.0 4.0 0.00 0.07 0.01 45 1019.3
20260507000107 59 56 1.0 9.0 0.00 0.07 0.01 49 1019.2
20260506235052 59 345 1.0 6.0 0.00 0.07 0.01 48 1018.9
20260506234039 60 313 1.0 3.0 0.00 0.07 0.01 49 1018.8
20260506233031 60 68 1.0 9.0 0.00 0.07 0.01 49 1018.6
20260506232048 60 346 1.0 8.0 0.00 0.07 0.01 44 1018.5
20260506231032 60 16 2.0 6.0 0.00 0.07 0.01 46 1018.6
20260506230039 61 40 1.0 5.0 0.00 0.08 0.01 47 1018.6
20260506225039 61 310 1.0 6.0 0.00 0.08 0.01 45 1018.3
20260506224033 61 34 1.0 9.0 0.00 0.08 0.01 45 1018.6
20260506223112 61 51 2.0 6.0 0.00 0.08 0.01 48 1018.6
20260506222048 61 85 2.0 9.0 0.00 0.08 0.01 43 1018.5
20260506221051 61 342 2.0 9.0 0.00 0.08 0.01 46 1018.5
20260506220049 61 47 1.0 7.0 0.00 0.08 0.01 47 1018.6
20260506215035 62 305 2.0 5.0 0.00 0.08 0.01 46 1018.5
20260506214047 62 336 1.0 5.0 0.00 0.08 0.01 45 1018.8
20260506213058 62 26 1.0 7.0 0.00 0.08 0.01 47 1018.7
20260506212048 62 1 1.0 9.0 0.00 0.08 0.01 47 1018.6
20260506211030 63 46 1.0 6.0 0.00 0.08 0.01 46 1018.6
20260506210039 62 31 2.0 10.0 0.00 0.08 0.01 48 1018.8
20260506205042 63 40 3.0 6.0 0.00 0.08 0.01 47 1018.8
20260506204053 63 113 3.0 7.0 0.00 0.08 0.01 43 1019.1
20260506203050 63 108 1.0 8.0 0.00 0.08 0.01 42 1019.3
20260506202030 63 15 2.0 7.0 0.00 0.08 0.01 48 1019.4
20260506201031 63 306 1.0 5.0 0.00 0.08 0.01 49 1019.3
20260506200049 63 360 2.0 11.0 0.00 0.08 0.01 46 1019.4
20260506195026 62 10 1.0 9.0 0.00 0.08 0.01 45 1019.4
20260506194052 62 73 2.0 8.0 0.00 0.08 0.01 47 1019.5
20260506193035 62 13 2.0 6.0 0.00 0.08 0.01 45 1019.6
20260506192039 62 61 2.0 9.0 0.00 0.08 0.01 47 1019.9
20260506191053 62 49 2.0 7.0 0.00 0.08 0.01 45 1020.2
20260506190058 62 330 2.0 7.0 0.00 0.08 0.01 49 1020.0
20260506185037 62 170 2.0 6.0 0.00 0.08 0.01 50 1020.1
20260506184032 62 38 1.0 6.0 0.00 0.08 0.01 50 1020.2
20260506183045 61 111 3.0 7.0 0.00 0.08 0.01 43 1020.3
20260506182054 62 67 1.0 8.0 0.00 0.08 0.01 47 1020.5
20260506181046 61 302 1.0 8.0 0.00 0.08 0.01 49 1020.8
20260506180041 60 303 3.0 8.0 0.00 0.08 0.01 46 1020.9
20260506175030 60 105 3.0 7.0 0.00 0.08 0.01 49 1021.1
20260506174044 59 334 1.0 6.0 0.00 0.08 0.01 56 1021.2
20260506173049 58 319 3.0 8.0 0.00 0.08 0.01 57 1021.1
20260506172053 58 34 1.0 7.0 0.00 0.08 0.01 51 1021.1
20260506171028 58 57 1.0 3.0 0.00 0.08 0.01 53 1021.1
20260506170049 57 347 0.0 5.0 0.00 0.08 0.01 59 1021.3
20260506165032 57 82 1.0 3.0 0.00 0.08 0.01 54 1021.2
20260506164029 57 33 1.0 4.0 0.00 0.08 0.01 61 1021.2
20260506163028 57 55 1.0 6.0 0.00 0.08 0.01 59 1020.7
20260506162028 57 47 2.0 6.0 0.00 0.08 0.01 55 1020.4
20260506161055 57 5 1.0 8.0 0.00 0.08 0.01 57 1020.3
20260506160056 57 23 2.0 11.0 0.00 0.08 0.01 56 1020.0
20260506155027 57 325 2.0 11.0 0.00 0.08 0.01 55 1019.9
20260506154052 56 20 1.0 9.0 0.01 0.08 0.01 59 1019.8
20260506153047 56 356 3.0 10.0 0.01 0.08 0.01 60 1020.1
20260506152044 55 67 1.0 6.0 0.01 0.08 0.01 66 1020.1
20260506151035 55 16 1.0 9.0 0.01 0.08 0.01 70 1019.8
20260506150046 54 87 1.0 7.0 0.01 0.08 0.01 69 1020.1
20260506145053 53 103 3.0 8.0 0.01 0.08 0.01 69 1019.9
20260506144034 51 47 1.0 5.0 0.00 0.07 0.00 75 1019.7
20260506143037 50 88 3.0 7.0 0.00 0.07 0.00 76 1019.6
20260506142037 49 246 1.0 5.0 0.00 0.07 0.00 76 1019.5
20260506141038 49 81 1.0 6.0 0.00 0.07 0.00 78 1019.9
20260506140037 48 61 0.0 6.0 0.00 0.07 0.00 80 1020.1
20260506135039 48 53 1.0 8.0 0.00 0.07 0.00 79 1020.0
20260506134025 47 355 1.0 5.0 0.00 0.07 0.00 81 1020.1
20260506133111 47 55 0.0 4.0 0.00 0.07 0.00 82 1020.0
20260506132028 47 9 1.0 5.0 0.00 0.07 0.00 83 1019.8
20260506131037 47 61 1.0 3.0 0.00 0.07 0.00 85 1019.9
20260506130025 47 47 2.0 5.0 0.00 0.07 0.00 86 1019.8
20260506125114 47 40 0.0 6.0 0.00 0.07 0.00 88 1019.7
20260506124043 46 53 0.0 4.0 0.00 0.07 0.00 89 1019.7
20260506123040 46 34 1.0 5.0 0.00 0.07 0.00 92 1019.6
20260506122037 47 17 0.0 2.0 0.00 0.07 0.00 93 1019.8
20260506121046 47 47 0.0 5.0 0.00 0.07 0.00 94 1019.8
20260506120045 46 85 0.0 4.0 0.00 0.07 0.00 95 1019.9
20260506115048 46 26 0.0 2.0 0.00 0.07 0.00 95 1019.8
20260506114048 46 18 0.0 2.0 0.00 0.07 0.00 95 1019.6
20260506113057 46 50 0.0 2.0 0.00 0.07 0.00 95 1019.3
20260506112033 46 52 0.0 1.0 0.00 0.07 0.00 95 1019.3
20260506111032 46 51 0.0 2.0 0.00 0.07 0.00 96 1019.3
20260506110053 46 323 1.0 4.0 0.00 0.12 0.00 95 1019.2
20260506105058 46 355 1.0 4.0 0.00 0.12 0.00 95 1018.9
20260506104023 46 30 0.0 4.0 0.00 0.12 0.00 95 1018.6
20260506103120 46 1 1.0 5.0 0.00 0.12 0.00 95 1018.3
20260506102045 46 346 0.0 2.0 0.00 0.12 0.00 95 1018.1
20260506101036 46 298 0.0 2.0 0.00 0.12 0.00 95 1018.3
20260506100054 46 37 0.0 2.0 0.00 0.26 0.00 95 1017.9
20260506095029 46 344 0.0 2.0 0.00 0.26 0.00 94 1017.6
20260506094058 46 322 1.0 4.0 0.00 0.26 0.00 94 1017.5
20260506093028 47 119 0.0 1.0 0.00 0.26 0.00 93 1017.5
20260506092034 47 119 0.0 1.0 0.00 0.26 0.00 93 1017.6
20260506091049 47 99 0.0 1.0 0.00 0.26 0.00 93 1017.5
20260506090048 47 94 0.0 1.0 0.00 0.43 0.00 92 1017.3
20260506085051 47 94 0.0 0.0 0.00 0.43 0.00 91 1016.8
20260506084030 47 94 0.0 1.0 0.00 0.43 0.00 90 1016.2
20260506083023 47 94 1.0 2.0 0.00 0.43 0.00 90 1016.1
20260506082044 47 357 0.0 2.0 0.00 0.43 0.00 89 1016.3
20260506081051 46 11 1.0 2.0 0.00 0.43 0.00 89 1015.8
20260506080120 47 61 0.0 1.0 0.00 0.50 0.00 90 1016.4
20260506073053 46 346 1.0 4.0 0.00 0.50 0.00 89 1015.4
20260506072034 46 44 1.0 2.0 0.00 0.50 0.00 90 1015.4
20260506071053 46 49 1.0 2.0 0.00 0.50 0.00 90 1015.3